Regional Weather Roundup
Issued by NWS

Home | Current Version | Previous Version | Graphics & Text | Print | Product List | Glossary On
Versions: 1 2 3 4 5 6 7 8 9 10 11 12 13 14 15 16 17 18 19 20 21 22 23 24 25 26 27 28 29 30 31 32 33 34 35 36 37 38 39 40 41 42 43 44 45 46 47 48 49 50
000
ASUS43 KDTX 312110
RWRMI
MICHIGAN HOURLY REGIONAL WEATHER ROUNDUP
NATIONAL WEATHER SERVICE DETROIT/PONTIAC MI
500 PM EDT MON AUG 31 2015

NOTE: "FAIR" INDICATES FEW OR NO CLOUDS BELOW 12,000 FEET WITH NO
SIGNIFICANT WEATHER AND/OR OBSTRUCTION TO VISIBILITY.

MIZ047>049-052>055-059>063-066>070-074>076-081>083-312200-
SOUTHEAST LOWER MICHIGAN

CITY           SKY/WX    TMP DP  RH WIND       PRES   REMARKS
ADRIAN           N/A     86  65  49 NW8       30.05F
ALMA             N/A     78  68  72 SW7       30.06S
ANN ARBOR        N/A     84  67  56 W7        30.04F
BAD AXE          N/A     77  65  65 W6        30.05S
DETROIT CITY     N/A     85  64  49 NW9       30.03F
DETROIT          N/A     85  67  54 W9        30.04F
FLINT            N/A     82  66  58 SW8       30.05F
GROSSE ILE       N/A     81  72  74 SE3       30.03F
HILLSDALE        N/A     85  64  49 SW6       30.06F
HOWELL           N/A     82  64  54 W7        30.05F

CITY           SKY/WX    TMP DP  RH WIND       PRES   REMARKS
JACKSON          N/A     81  68  64 W9        30.05F
LAMBERTVILLE     N/A     86  66  51 W3        30.04F
LANSING          N/A     80  66  62 W8        30.05F
LAPEER         NOT AVBL
MASON            N/A     80  64  56 SW5       30.06F
MONROE           N/A     87  66  49 W9        30.03F
MT. CLEMENS    SUNNY     78  67  68 E7        30.03F
PONTIAC          N/A     81  65  58 W7        30.05F
PORT HOPE        N/A     72  67  84 SE7       30.02F
PORT HURON       N/A     79  66  65 SW3       30.04F
TRI CITIES       N/A     79  67  66 SW8       30.05F
YPSILANTI        N/A     88  69  53 W10       30.05F HX  92
$$
MIZ043>046-050>051-056>058-064>065-071>073-077>080-312200-
SOUTHWEST LOWER MICHIGAN

CITY           SKY/WX    TMP DP  RH WIND       PRES   REMARKS
BATTLE CREEK     N/A     82  67  60 W6        30.06F
BENTON HARBOR    N/A     78  66  66 W7        30.04F
BIG RAPIDS       N/A     78  67  69 SW6       30.04F
COLDWATER        N/A     83  67  57 W6        30.05F
HOLLAND          N/A     80  66  62 W8        30.06S
GRAND RAPIDS     N/A     80  67  64 SW6       30.05F
KALAMAZOO        N/A     83  66  56 W9        30.05F
MARSHALL         N/A     83  68  60 W7        30.05F
MUSKEGON       PTSUNNY   77  64  64 W7        30.05F
$$
MIZ016>042-312200-
NORTHERN LOWER MICHIGAN

CITY           SKY/WX    TMP DP  RH WIND       PRES   REMARKS
ALPENA           N/A     73  65  75 E10       30.02S
BEAVER ISLAND  PTSUNNY   71  66  82 SW8       29.99F
BELLAIRE         N/A     82  64  54 SW5       30.00F
CADILLAC         N/A     78  64  62 SW8       30.05S
CHARLEVOIX       N/A     75  67  75 W12       30.03F
FRANKFORT        N/A     73  67  82 SW10G16   30.02F
GAYLORD          N/A     81  62  52 S6        30.03F
GRAYLING         N/A     83  62  49 SW5       30.03F
HARBOR SPRINGS   N/A     74  67  77 SW6       30.00F
HOUGHTON LAKE    N/A     81  63  54 SW6       30.04F
MANISTEE         N/A     75  64  69 SW9       30.03F
OSCODA           N/A     81  67  61 SW8       30.00S
PELLSTON         N/A     80  67  64 W5        30.00F
TRAVERSE CITY    N/A     82  66  58 SW8       29.99F
$$
MIZ007>008-015-312200-
EASTERN UPPER MICHIGAN

CITY           SKY/WX    TMP DP  RH WIND       PRES   REMARKS
KINROSS          N/A     75  66  73 S8        29.99F
MACKINAC ISLAN   N/A     72  66  81 W9G17     30.00S
NEWBERRY         N/A     70  64  81 S12       29.98S
S. S. MARIE      N/A     76  65  68 S9        29.98S
$$
MIZ004>006-011>014-085-312200-
CENTRAL UPPER MICHIGAN

CITY           SKY/WX    TMP DP  RH WIND       PRES   REMARKS
MANISTIQUE     CLOUDY    66  63  89 S12       29.98S
ESCANABA         N/A     72  64  78 S13       29.95F
MENOMINEE        N/A     77  66  69 SW12      29.96S
SAWYER-GWINN   SUNNY     84  63  48 SW13      29.94S
$$
MIZ001>003-009>011-084-312200-
WESTERN UPPER MICHIGAN

CITY           SKY/WX    TMP DP  RH WIND       PRES   REMARKS
IRON MOUNTAIN    N/A     85  64  49 SW12      29.94F
HOUGHTON         N/A     84  66  54 SE7       29.87F
IRONWOOD         N/A     81  63  54 S15       29.87S
$$

ABBREVIATIONS USED IN REMARKS
   TC - TEMPERATURE IN CELSIUS
  WCI - WIND CHILL INDEX
   HX - HEAT INDEX
  VSB - VISIBILITY



USA.gov is the U.S. government's official web portal to all federal, state and local government web resources and services.